Hourly Weather Roundup
Issued by NWS Central Illinois

Home | Current Version | Previous Version | Text Only | Print | Product List | Glossary On
Versions: 1 2 3 4 5 6 7 8 9 10 11 12 13 14 15 16 17 18 19 20 21 22 23 24 25 26 27 28 29 30 31 32 33 34 35 36 37 38 39 40 41 42 43 44 45 46 47 48 49 50
000
NZUS43 KILX 301310
HWRILX

Area Weather Roundup
National Weather Service Lincoln IL
800 AM CDT SUN APR 30 2017

NOTE:  "FAIR" indicates few or no clouds below 12,000 feet, with
       no sigificant weather and/or obstructions to visibility.


CITY           SKY/WX    TMP DP  RH WIND       PRES   REMARKS
Bloomington    LGT RAIN  50  49  96 E20       29.73F FOG
Champaign      LGT RAIN  58  56  93 NE9       29.75F
Danville       HVY RAIN  56  56  99 NE9       29.74F
Decatur        CLOUDY    55  55 100 E12       29.72F
Effingham      RAIN      59  59 100 W8        29.81R
Flora          LGT RAIN  65  63  95 W8        29.79S
Galesburg      CLOUDY    45  44  98 NE15G23   29.74R
Jacksonville   CLOUDY    50  49  99 SE9       29.69R
Lacon          CLOUDY    45  45 100 NE3       29.76R
Lawrenceville  LGT RAIN  66  64  93 S15       29.80R
Litchfield     DRIZZLE   53  53 100 SE3       29.73R
$$


CITY           SKY/WX    TMP DP  RH WIND       PRES   REMARKS
Lincoln        CLOUDY    53  53 100 E9        29.69F
Macomb         CLOUDY    46  46 100 W14       29.81R
Mattoon        LGT RAIN  58  58 100 NW3       29.75S
Mt Carmel AP   LGT RAIN  65  63  90 S12       29.80S
Olney-Noble AP LGT RAIN  64  64 100 CALM      29.79S
Paris AP       CLOUDY   N/A N/A N/A SE10      29.76S
Peoria         CLOUDY    49  48  97 NE18G30   29.70F
Pontiac        LGT RAIN  48  47  97 E17G23    29.77F
Rantoul        RAIN      57  56  99 NE9       29.77S
Robinson       LGT RAIN  65  63  92 SW10      29.81R
Springfield    CLOUDY    52  51  97 E12       29.72F
Taylorville    CLOUDY    53  53 100 SE14      29.70F FOG
$$

...REGIONAL REPORTS...


CITY           SKY/WX    TMP DP  RH WIND       PRES   REMARKS
Chicago O`Hare LGT RAIN  43  41  93 NE13      29.84F FOG
Kankakee       DRIZZLE   48  47  97 CALM      29.80F
Moline         CLOUDY    44  41  89 VRB6G21   29.81R
Mount Sterling CLOUDY    48  47  99 NW3       29.73S
Mount Vernon   RAIN      63  63 100 S5        29.80R
Pittsfield     CLOUDY    49  49 100 N6        29.71R FOG
Quincy         CLOUDY    48  47  96 N10       29.71S FOG
Rockford       CLOUDY    42  39  89 E20G33    29.83F WCI  33
$$


CITY           SKY/WX    TMP DP  RH WIND       PRES   REMARKS
Burlington     LGT RAIN  45  45 100 NE15      29.75F VSB 1
Cedar Rapids   CLOUDY    41  41 100 NE17      29.80R WCI  32
Des Moines     DRIZZLE   42  40  92 NE13G28   29.80R FOG
Kirksville     CLOUDY    45  28  51 NE15      29.71R
Ottumwa        CLOUDY    44  43  96 E21G30    29.74F
St Louis       LGT RAIN  60  56  86 SE18G25   29.71F
$$


CITY           SKY/WX    TMP DP  RH WIND       PRES   REMARKS
Terre Haute    CLOUDY    68  63  84 S15G23    29.76S
Evansville     LGT RAIN  66  64  93 S9        29.87R
Indianapolis   CLOUDY    65  62  90 SE15      29.79F
Lafayette      LGT RAIN  51  51 100 NE9       29.79F FOG
Madison        DRIZZLE   40  38  93 E21G26    29.89F FOG     WCI  30
Milwaukee      LGT RAIN  42  41  96 NE16      29.95F VSB 3/4 WCI  34
$$






USA.gov is the U.S. government's official web portal to all federal, state and local government web resources and services.